Location: Colle San Luigi
(43.5500°N, 13.4167°E)
Time: 13:27:52
(UTC+00:00)

Cosmos 2237 Rocket - Pass Details

Date: 09 April 2020
Orbit: 834 x 851 km, 71.0° (Epoch: 26 May)

Event Time Altitude Azimuth Distance (km) Brightness Sun altitude
Rises 23:37:53 0° 344° (NNW) 3,410 6.1 -38.0°
Reaches altitude 10° 23:40:55 10° 359° (N) 2,475 5.3 -37.9°
Maximum altitude 23:45:16 22° 49° (NE) 1,772 4.2 -37.7°
Enters shadow 23:45:45 22° 57° (ENE) 1,782 4.2 -37.7°
